Location: Batang Balui
(2.7000°N, 113.7833°E)
Time: 04:25:05
(UTC+00:00)

Cosmos 2180 Rocket - Pass Details

Date: 08 February 2023
Orbit: 954 x 1003 km, 82.9° (Epoch: 26 March)

Event Time Altitude Azimuth Distance (km) Brightness Sun altitude
Exits shadow 20:40:04 54° 6° (N) 1,189 4.8 -29.4°
Maximum altitude 20:41:38 84° 87° (E) 1,006 4.5 -29.0°
Drops below altitude 10° 20:48:01 10° 175° (S) 2,772 7.1 -27.5°
Sets 20:50:33 0° 175° (S) 3,725 7.8 -26.9°
